Terminal Aerodrome Forecast
Issued by NWS

Current Version | Previous Version | Graphics & Text | Print | Product List | Glossary On
Versions: 1 2 3 4 5 6 7 8 9 10 11 12 13 14 15 16 17 18 19
000
FTUS41 KPBZ 271721
TAFHLG
TAF
KHLG 271721Z 2718/2818 20012KT P6SM BKN009 BKN013 OVC018
     FM272000 19011G19KT P6SM VCTS BKN025CB
     FM280200 23012KT P6SM OVC015
     FM281000 26013KT 3SM -RA BR OVC008=

USA.gov is the U.S. government's official web portal to all federal, state and local government web resources and services.